Terminal Aerodrome Forecast
Issued by NWS Mt. Holly, NJ

Home | Current Version | Previous Version | Text Only | Print | Product List | Glossary On
Versions: 1 2 3 4 5 6 7 8 9 10 11 12 13 14 15 16 17 18 19 20 21
000
FTUS41 KPHI 152335 AAB
TAFILG
TAF AMD
KILG 152335Z 1600/1624 VRB03KT 5SM BR SCT025 BKN060
      TEMPO 1600/1602 P6SM NSW BKN025 OVC060
     FM160200 27006KT P6SM SCT250
     FM161600 24010G18KT P6SM BKN050
     FM162300 27006KT P6SM SCT050=

USA.gov is the U.S. government's official web portal to all federal, state and local government web resources and services.